"datetime","# probes","# resolvers","can_ipv6","can_ipv6_prbs","can_tcp","can_tcp_prbs","can_tcp6","can_tcp6_prbs","does_ecs","does_ecs_prbs","does_flagday","does_flagday_prbs","does_rov4","does_rov4_prbs","does_rov6","does_rov6_prbs","does_qnamemin","doesnt_qnamemin","does_qnamemin_prbs","doesnt_qnamemin_prbs","does_nxdomain","doesnt_nxdomain","does_nxdomain_prbs","doesnt_nxdomain_prbs","has_ta_19036","hasnt_ta_19036","has_ta_19036_prbs","hasnt_ta_19036_prbs","has_ta_20326","hasnt_ta_20326","has_ta_20326_prbs","hasnt_ta_20326_prbs","can_rsamd5","cannot_rsamd5","broken_rsamd5","can_rsamd5_prbs","cannot_rsamd5_prbs","broken_rsamd5_prbs","can_dsa","cannot_dsa","broken_dsa","can_dsa_prbs","cannot_dsa_prbs","broken_dsa_prbs","can_rsasha1","cannot_rsasha1","broken_rsasha1","can_rsasha1_prbs","cannot_rsasha1_prbs","broken_rsasha1_prbs","can_dsansec3","cannot_dsansec3","broken_dsansec3","can_dsansec3_prbs","cannot_dsansec3_prbs","broken_dsansec3_prbs","can_rsansec3","cannot_rsansec3","broken_rsansec3","can_rsansec3_prbs","cannot_rsansec3_prbs","broken_rsansec3_prbs","can_rsasha256","cannot_rsasha256","broken_rsasha256","can_rsasha256_prbs","cannot_rsasha256_prbs","broken_rsasha256_prbs","can_rsasha512","cannot_rsasha512","broken_rsasha512","can_rsasha512_prbs","cannot_rsasha512_prbs","broken_rsasha512_prbs","can_eccgost","cannot_eccgost","broken_eccgost","can_eccgost_prbs","cannot_eccgost_prbs","broken_eccgost_prbs","can_ecdsa256","cannot_ecdsa256","broken_ecdsa256","can_ecdsa256_prbs","cannot_ecdsa256_prbs","broken_ecdsa256_prbs","can_ecdsa384","cannot_ecdsa384","broken_ecdsa384","can_ecdsa384_prbs","cannot_ecdsa384_prbs","broken_ecdsa384_prbs","can_ed25519","cannot_ed25519","broken_ed25519","can_ed25519_prbs","cannot_ed25519_prbs","broken_ed25519_prbs","can_ed448","cannot_ed448","broken_ed448","can_ed448_prbs","cannot_ed448_prbs","broken_ed448_prbs","can_gost","cannot_gost","broken_gost","can_gost_prbs","cannot_gost_prbs","broken_gost_prbs","can_sha384","cannot_sha384","broken_sha384","can_sha384_prbs","cannot_sha384_prbs","broken_sha384_prbs","is_internal","is_forwarding","is_external","is_internal_prbs","is_forwarding_prbs","is_external_prbs"
2017-06-20T23:59:55Z,78,128,123,74,128,78,123,74,29,16,0,0,0,0,0,0,0,128,0,78,0,128,0,78,0,0,0,0,0,0,0,0,14,72,42,12,52,25,83,29,16,57,18,11,128,0,0,78,4,0,81,29,16,56,18,11,125,1,0,76,5,0,125,1,0,76,5,0,126,1,0,77,5,0,74,37,15,51,22,10,124,2,0,75,6,0,125,2,0,75,6,0,1,111,15,1,71,10,0,109,17,0,71,11,103,8,14,66,9,9,124,2,0,75,6,0,93,11,24,59,12,12
2017-06-21T23:59:55Z,78,128,123,74,128,78,123,74,30,17,0,0,0,0,0,0,0,128,0,78,0,128,0,78,0,0,0,0,0,0,0,0,15,73,40,13,53,23,83,30,15,58,19,10,128,0,0,78,4,0,84,29,14,60,18,9,128,0,0,78,4,0,126,0,0,77,4,0,127,0,0,78,4,0,76,36,14,53,21,9,127,1,0,77,5,0,126,1,0,76,5,0,1,113,13,1,73,8,0,110,16,0,72,11,106,8,13,68,9,8,124,2,0,75,6,0,93,11,24,59,12,12
2017-06-22T23:59:56Z,82,135,130,78,135,82,130,78,29,15,0,0,0,0,0,0,3,132,2,80,0,135,0,82,0,0,0,0,0,0,0,0,13,76,45,12,55,26,87,31,16,61,19,11,135,0,0,82,4,0,88,31,14,62,19,9,133,1,0,80,5,0,133,1,0,80,5,0,133,1,0,80,5,0,77,38,18,54,22,12,132,2,0,79,6,0,131,2,0,78,6,0,0,115,18,0,74,12,0,115,18,0,74,12,106,8,19,67,9,12,129,2,0,77,6,0,99,12,24,63,13,12
2017-06-23T23:59:55Z,83,136,131,79,136,83,131,79,31,17,0,0,0,0,0,0,3,133,2,81,0,136,0,83,0,0,0,0,0,0,0,0,13,75,47,11,56,28,89,31,16,62,19,10,136,0,0,83,5,0,89,31,15,62,19,10,135,0,0,82,5,0,135,0,0,82,5,0,135,0,0,82,5,0,78,38,18,54,22,12,133,2,0,80,7,0,132,2,0,79,7,0,1,114,19,1,74,13,0,117,17,0,76,11,108,7,19,69,9,13,130,2,0,78,7,0,99,13,24,63,14,12
2017-06-24T23:59:56Z,80,131,126,76,131,80,126,76,31,17,0,0,0,0,0,0,3,128,2,78,0,131,0,80,0,0,0,0,0,0,0,0,13,75,43,12,55,25,86,31,14,60,20,9,131,0,0,80,5,0,86,30,15,59,20,10,131,0,0,80,5,0,131,0,0,80,5,0,131,0,0,80,5,0,75,36,19,51,22,13,130,1,0,79,6,0,129,1,0,78,6,0,0,110,20,0,71,13,1,112,17,1,73,11,105,7,18,68,9,12,127,1,0,77,6,0,96,11,24,61,12,12
2017-06-25T23:59:56Z,81,133,128,78,133,81,128,78,28,15,0,0,0,0,0,0,3,130,2,79,0,133,0,81,0,0,0,0,0,0,0,0,13,75,45,11,53,27,87,30,16,60,20,11,133,0,0,81,5,0,89,29,15,61,19,10,133,0,0,81,5,0,133,0,0,81,5,0,133,0,0,81,5,0,79,36,17,55,22,11,132,1,0,80,6,0,131,1,0,79,6,0,2,113,17,2,73,11,0,116,16,0,75,10,106,8,18,68,10,12,129,2,0,77,7,0,98,11,24,62,12,12
2017-06-26T23:59:56Z,80,131,126,76,131,80,125,75,29,16,0,0,0,0,0,0,3,128,2,78,0,131,0,80,0,0,0,0,0,0,0,0,13,73,45,12,53,27,87,30,14,60,20,9,131,0,0,80,5,0,87,29,15,60,19,10,131,0,0,80,5,0,131,0,0,80,5,0,131,0,0,80,5,0,75,36,19,52,22,13,130,1,0,79,6,0,129,1,0,78,6,0,0,113,17,0,73,11,0,112,18,0,73,12,106,7,17,68,9,11,128,1,0,77,6,0,96,11,24,61,12,12
2017-06-27T23:59:59Z,81,131,126,77,131,81,125,76,29,16,0,0,0,0,0,0,3,128,2,79,0,131,0,81,0,0,0,0,0,0,0,0,14,74,43,12,54,26,88,31,12,62,21,8,131,0,0,81,6,0,89,31,11,62,21,7,130,1,0,80,7,0,130,1,0,80,7,0,130,1,0,80,7,0,75,38,17,52,24,12,129,2,0,79,8,0,128,2,0,78,8,0,0,115,15,0,75,10,1,115,14,1,75,9,106,8,16,68,11,11,127,2,0,77,8,0,95,12,24,61,13,12
2017-06-28T23:59:56Z,80,131,126,76,131,80,125,75,31,18,0,0,0,0,0,0,3,128,2,78,0,131,0,80,0,0,0,0,0,0,0,0,13,76,42,11,54,25,89,30,12,62,21,8,131,0,0,80,6,0,87,32,12,60,22,8,131,0,0,80,6,0,131,0,0,80,6,0,131,0,0,80,6,0,78,36,16,54,23,11,130,1,0,79,7,0,129,1,0,78,7,0,0,114,16,0,74,11,0,116,14,0,75,9,108,7,15,69,10,10,128,1,0,77,7,0,96,11,24,61,13,12
2017-06-29T23:59:57Z,83,137,132,79,137,83,131,78,31,17,0,0,0,0,0,0,4,133,2,81,0,137,0,83,0,0,0,0,0,0,0,0,13,79,45,11,58,26,94,32,11,65,21,7,137,0,0,83,6,0,92,33,12,63,22,8,136,1,0,82,7,0,136,1,0,82,7,0,136,1,0,82,7,0,78,40,18,54,25,12,136,1,0,82,7,0,134,2,0,80,8,0,1,118,17,1,76,10,1,118,17,1,76,11,112,8,16,71,11,10,133,2,0,79,8,0,99,14,24,63,14,12
2017-06-30T23:59:59Z,83,134,129,79,134,83,127,78,31,18,0,0,0,0,0,0,3,131,2,81,0,134,0,83,0,0,0,0,0,0,0,0,12,76,45,10,55,28,91,30,13,63,20,9,134,0,0,83,6,0,89,31,13,61,21,9,132,1,0,81,7,0,132,1,0,81,7,0,132,1,0,81,7,0,78,38,16,53,24,11,132,1,0,81,7,0,131,1,0,80,7,0,0,116,16,0,76,11,0,115,17,0,75,12,108,8,16,69,11,11,131,0,0,80,6,0,98,12,24,63,13,12
2017-07-01T23:59:56Z,83,136,131,79,136,83,130,78,32,18,0,0,0,0,0,0,3,133,2,81,0,136,0,83,0,0,0,0,0,0,0,0,12,76,48,10,54,29,90,33,13,62,21,9,136,0,0,83,5,0,88,34,14,60,22,10,132,4,0,81,7,0,132,4,0,81,7,0,132,4,0,81,7,0,77,41,17,53,25,12,133,3,0,81,7,0,132,3,0,80,7,0,0,119,16,0,76,11,0,116,19,0,74,13,107,12,16,68,12,11,131,3,0,79,7,0,99,13,24,63,13,12
2017-07-02T23:59:59Z,82,133,127,78,133,82,126,77,31,18,0,0,0,0,0,0,3,130,2,80,0,132,0,82,0,0,0,0,0,0,0,0,14,77,42,12,57,26,88,33,12,60,22,9,133,0,0,82,7,0,88,32,13,60,22,10,132,1,0,81,8,0,132,1,0,81,8,0,132,1,0,81,8,0,76,38,18,52,24,12,132,1,0,81,8,0,131,1,0,80,8,0,1,116,15,1,75,10,0,117,15,0,76,11,111,8,13,71,12,9,129,1,0,79,8,0,97,11,25,63,12,13
2017-07-03T23:59:59Z,82,134,129,78,134,82,128,77,31,17,0,0,0,0,0,0,4,130,2,80,0,134,0,82,0,0,0,0,0,0,0,0,11,76,47,9,56,29,89,32,13,60,21,10,134,0,0,82,7,0,89,32,12,60,21,9,131,2,0,80,8,0,131,2,0,80,8,0,131,2,0,80,8,0,77,39,16,52,25,10,133,0,0,81,7,0,132,0,0,80,7,0,0,118,14,0,76,9,1,117,14,1,76,9,111,6,15,70,11,10,131,0,0,79,7,0,96,13,25,62,13,13
2017-07-04T23:59:56Z,82,134,129,78,134,82,127,77,32,17,0,0,0,0,0,0,3,131,2,80,0,134,0,82,0,0,0,0,0,0,0,0,12,76,46,10,57,28,89,33,12,61,21,9,134,0,0,82,7,0,88,33,13,60,21,10,133,1,0,81,8,0,133,1,0,81,8,0,133,1,0,81,8,0,80,40,13,54,25,9,134,0,0,82,7,0,133,0,0,81,7,0,0,120,13,0,78,9,1,119,13,1,77,9,114,7,12,72,12,8,131,1,0,79,8,0,96,11,27,63,12,14
2017-07-05T23:59:56Z,80,131,126,76,131,80,125,75,31,16,0,0,0,0,0,0,3,128,2,78,0,131,0,80,0,0,0,0,0,0,0,0,12,75,44,10,55,26,87,32,12,59,20,9,131,0,0,80,6,0,88,33,10,60,21,7,130,1,0,79,7,0,130,1,0,79,7,0,130,1,0,79,7,0,76,39,15,51,24,10,131,0,0,80,6,0,130,0,0,79,6,0,3,115,12,3,73,8,2,113,15,2,72,10,110,6,14,69,10,9,128,1,0,77,7,0,94,10,27,62,11,14
2017-07-06T23:59:59Z,79,130,125,75,130,79,123,74,32,17,0,0,0,0,0,0,3,127,2,77,0,130,0,79,0,0,0,0,0,0,0,0,12,74,44,10,54,26,85,34,11,58,22,8,130,0,0,79,7,0,85,34,11,57,22,8,130,0,0,79,7,0,130,0,0,79,7,0,130,0,0,79,7,0,76,40,13,51,24,9,129,1,0,78,8,0,128,1,0,77,8,0,1,117,11,1,74,7,1,115,13,1,73,9,109,7,13,68,11,9,127,1,0,76,8,0,92,11,27,60,12,14
2017-07-07T23:59:56Z,78,129,124,74,129,78,123,73,32,17,0,0,0,0,0,0,3,126,2,76,0,129,0,78,0,0,0,0,0,0,0,0,11,75,43,9,54,25,88,32,9,60,20,6,129,0,0,78,6,0,88,32,9,60,20,6,129,0,0,78,6,0,129,0,0,78,6,0,129,0,0,78,6,0,76,39,13,51,23,9,128,1,0,77,7,0,127,1,0,76,7,0,2,115,11,2,73,7,1,115,12,1,73,8,108,8,12,67,11,8,126,1,0,75,7,0,92,10,27,60,11,14
2017-07-08T23:59:59Z,78,129,124,74,129,78,123,73,34,19,0,0,0,0,0,0,1,128,1,77,0,129,0,78,0,0,0,0,0,0,0,0,11,76,42,9,57,25,82,35,12,56,23,9,129,0,0,78,8,0,87,33,9,60,22,6,129,0,0,78,8,0,129,0,0,78,8,0,129,0,0,78,8,0,77,40,11,52,25,8,129,0,0,78,8,0,128,0,0,77,8,0,2,116,10,2,75,7,1,117,10,1,75,7,111,6,11,70,12,8,128,0,0,77,8,0,91,11,27,59,12,14
2017-07-09T23:59:59Z,78,130,125,74,130,78,123,73,37,20,0,0,0,0,0,0,0,130,0,78,0,130,0,78,0,0,0,0,0,0,0,0,15,75,40,12,55,23,87,33,10,59,21,7,130,0,0,78,7,0,86,35,9,59,22,6,130,0,0,78,7,0,130,0,0,78,7,0,130,0,0,78,7,0,79,40,10,54,24,7,130,0,0,78,7,0,129,0,0,77,7,0,0,118,11,0,74,8,1,118,10,1,74,7,112,7,10,70,11,7,129,0,0,77,7,0,91,12,27,59,13,14
2017-07-10T23:59:59Z,82,137,132,78,137,82,131,77,32,16,0,0,0,0,0,0,3,134,2,80,0,137,0,82,0,0,0,0,0,0,0,0,12,80,45,10,59,25,91,36,10,62,22,7,137,0,0,82,7,0,94,34,9,64,21,6,137,0,0,82,7,0,137,0,0,82,7,0,137,0,0,82,7,0,83,41,12,56,24,8,137,0,0,82,7,0,136,0,0,81,7,0,2,123,11,2,77,7,1,122,13,1,77,8,116,7,13,73,11,8,135,0,0,80,7,0,98,12,27,63,12,14
2017-07-11T23:59:56Z,81,135,130,77,135,81,129,76,33,17,0,0,0,0,0,0,1,134,1,80,0,135,0,81,0,0,0,0,0,0,0,0,14,79,42,12,58,24,92,34,9,63,21,6,135,0,0,81,7,0,91,34,10,63,21,7,135,0,0,81,7,0,135,0,0,81,7,0,135,0,0,81,7,0,81,42,11,54,25,8,135,0,0,81,7,0,134,0,0,80,7,0,1,123,10,1,77,7,0,121,13,0,76,9,116,7,11,72,11,8,133,0,0,79,7,0,96,12,27,62,12,14
2017-07-12T23:59:56Z,80,133,128,76,133,80,127,75,31,16,0,0,0,0,0,0,1,132,1,79,0,133,0,80,0,0,0,0,0,0,0,0,13,81,39,11,57,22,88,34,11,60,21,8,133,0,0,80,5,0,91,31,11,63,19,8,132,1,0,79,6,0,132,1,0,79,6,0,132,1,0,79,6,0,79,39,14,53,23,10,133,0,0,80,5,0,132,0,0,79,5,0,2,119,11,2,75,8,1,121,10,1,76,7,115,7,10,72,9,7,130,1,0,77,6,0,97,11,25,63,10,13
2017-07-13T23:59:55Z,81,134,129,78,134,81,128,76,30,15,0,0,0,0,0,0,1,133,1,80,0,134,0,81,0,0,0,0,0,0,0,0,13,82,39,11,59,22,92,33,9,64,21,6,134,0,0,81,5,0,91,31,12,63,19,9,133,0,1,81,5,1,134,0,0,81,5,0,134,0,0,81,5,0,84,40,9,57,24,6,133,0,1,81,5,1,131,1,1,79,6,1,0,123,10,0,79,7,1,121,11,1,78,8,111,9,13,70,11,9,131,1,0,78,6,0,98,11,25,64,10,13
2017-07-14T23:59:56Z,81,134,129,78,134,81,128,76,29,14,0,0,0,0,0,0,1,133,1,80,0,134,0,81,0,0,0,0,0,0,0,0,12,79,43,10,56,25,92,33,9,64,21,6,134,0,0,81,5,0,94,31,9,65,19,6,133,1,0,80,6,0,133,1,0,80,6,0,133,1,0,80,6,0,54,68,11,37,43,8,133,1,0,80,6,0,132,1,0,79,6,0,0,121,12,0,77,9,1,122,10,1,77,7,79,40,14,49,32,10,131,1,0,78,6,0,98,11,25,64,10,13
2017-07-15T23:59:59Z,82,135,130,79,135,82,129,77,32,17,0,0,0,0,0,0,1,134,1,81,0,135,0,82,0,0,0,0,0,0,0,0,14,80,41,12,57,24,92,32,11,63,20,8,135,0,0,82,6,0,89,33,13,61,21,9,134,1,0,81,7,0,134,1,0,81,7,0,134,1,0,81,7,0,49,72,13,34,46,9,134,1,0,81,7,0,133,1,0,80,7,0,0,124,10,0,79,7,0,124,10,0,79,7,81,44,9,50,35,6,132,1,0,79,7,0,98,12,25,64,11,13
2017-07-16T23:59:57Z,81,134,129,78,134,81,128,76,31,16,0,0,0,0,0,0,1,133,1,80,0,134,0,81,0,0,0,0,0,0,0,0,12,82,40,10,58,23,91,33,10,63,20,7,134,0,0,81,5,0,91,33,10,62,21,7,133,1,0,80,6,0,133,1,0,80,6,0,133,1,0,80,6,0,48,75,10,33,48,7,134,0,0,81,5,0,133,0,0,80,5,0,1,119,13,1,76,9,0,122,11,0,77,8,76,46,11,46,36,8,131,1,0,78,6,0,98,11,25,64,10,13
2017-07-17T23:59:56Z,82,140,135,79,140,82,134,77,36,17,0,0,0,0,0,0,3,137,2,80,0,140,0,82,0,0,0,0,0,0,0,0,13,80,47,11,58,25,96,35,9,66,20,6,140,0,0,82,5,0,92,35,13,63,20,10,139,1,0,81,6,0,139,1,0,81,6,0,139,1,0,81,6,0,33,93,13,23,57,9,140,0,0,82,5,0,139,0,0,81,5,0,0,125,14,0,77,9,0,127,12,0,78,8,66,59,14,37,43,9,137,1,0,79,6,0,100,11,29,65,10,13
2017-07-18T23:59:54Z,79,134,129,76,134,79,128,74,35,18,0,0,0,0,0,0,3,131,2,77,0,134,0,79,0,0,0,0,0,0,0,0,12,74,48,11,52,26,90,34,10,61,20,7,134,0,0,79,5,0,86,34,14,58,20,10,134,0,0,79,5,0,134,0,0,79,5,0,134,0,0,79,5,0,38,80,15,27,48,10,134,0,0,79,5,0,133,0,0,78,5,0,3,118,12,2,73,8,0,120,13,0,74,9,66,54,13,37,40,9,132,0,0,77,5,0,97,10,27,62,9,13
2017-07-19T23:59:55Z,79,134,129,76,134,79,128,74,33,16,0,0,0,0,0,0,3,131,2,77,0,134,0,79,0,0,0,0,0,0,0,0,11,79,44,10,55,24,90,34,10,61,20,7,134,0,0,79,5,0,89,34,11,60,20,8,134,0,0,79,5,0,134,0,0,79,5,0,134,0,0,79,5,0,30,89,14,21,54,10,134,0,0,79,5,0,133,0,0,78,5,0,0,118,15,0,73,11,1,119,13,1,74,9,61,61,11,36,44,7,132,0,0,77,5,0,97,10,27,62,9,13
2017-07-20T23:59:55Z,79,133,128,76,133,79,127,74,38,20,0,0,0,0,0,0,3,130,2,77,0,133,0,79,0,0,0,0,0,0,0,0,10,79,44,10,56,24,88,35,10,61,21,6,133,0,0,79,6,0,87,35,11,60,21,7,133,0,0,79,6,0,133,0,0,79,6,0,133,0,0,79,6,0,32,87,13,22,53,9,133,0,0,79,6,0,132,0,0,78,6,0,0,120,12,0,75,8,1,119,12,1,74,8,63,55,14,38,40,9,131,0,0,77,6,0,97,9,27,62,9,13
2017-07-21T23:59:55Z,79,133,128,76,133,79,127,74,35,17,0,0,0,0,0,0,3,130,2,77,0,133,0,79,0,0,0,0,0,0,0,0,10,79,44,10,55,24,85,37,11,58,22,8,133,0,0,79,5,0,88,33,12,61,19,8,133,0,0,79,5,0,133,0,0,79,5,0,133,0,0,79,5,0,31,88,13,22,53,9,132,1,0,78,6,0,131,1,0,77,6,0,1,118,13,1,74,8,0,119,13,0,75,9,61,59,12,36,42,8,130,1,0,76,6,0,97,9,27,62,9,13
2017-07-22T23:59:58Z,81,134,129,78,134,81,128,76,33,16,0,0,0,0,0,0,3,131,2,79,0,134,0,81,0,0,0,0,0,0,0,0,8,78,48,8,57,28,88,36,10,62,21,8,134,0,0,81,6,1,88,34,12,61,20,10,133,1,0,80,7,1,133,1,0,80,7,1,133,1,0,80,7,1,27,90,16,19,57,13,134,0,0,81,6,1,133,0,0,80,6,1,2,116,15,2,74,11,1,120,12,1,76,9,60,58,15,35,44,11,131,1,0,78,7,1,98,9,27,64,9,13
2017-07-23T23:59:57Z,81,136,131,78,136,81,130,76,35,17,0,0,0,0,0,0,4,132,2,79,0,136,0,81,0,0,0,0,0,0,0,0,8,81,47,8,58,26,88,35,13,60,21,9,136,0,0,81,6,0,89,35,12,61,21,9,135,1,0,80,7,0,135,1,0,80,7,0,135,1,0,80,7,0,27,96,12,19,60,7,136,0,0,81,6,0,135,0,0,80,6,0,1,121,13,1,77,8,0,121,14,0,76,9,61,62,12,36,46,7,133,1,0,78,7,0,100,9,27,64,9,13
2017-07-24T23:59:56Z,73,123,118,70,123,73,117,68,34,17,0,0,0,0,0,0,3,120,2,71,0,123,0,73,0,0,0,0,0,0,0,0,10,70,43,9,50,24,83,34,6,56,21,5,123,0,0,73,6,0,82,35,6,55,22,5,119,3,1,70,8,1,121,2,0,72,7,0,122,1,0,72,7,0,31,83,9,22,50,6,119,4,0,71,9,0,121,2,0,71,7,0,1,110,12,2,69,9,1,112,10,1,69,8,57,51,15,33,37,11,118,4,0,70,9,0,86,10,27,56,9,13
2017-07-25T23:59:56Z,76,127,122,73,127,76,121,71,34,17,0,0,0,0,0,0,3,124,2,74,0,127,0,76,0,0,0,0,0,0,0,0,11,70,46,10,51,26,83,37,7,55,24,6,127,0,0,76,8,0,81,38,8,54,25,7,122,5,0,73,11,0,124,3,0,74,9,0,120,7,0,73,12,0,34,82,11,22,51,9,124,3,0,74,9,0,122,5,0,73,11,0,1,112,14,1,71,9,4,115,8,4,73,7,65,53,9,38,41,7,121,5,0,73,10,0,89,11,27,58,10,13
2017-07-26T23:59:57Z,69,117,112,66,117,69,110,63,33,16,0,0,0,0,0,0,3,114,2,67,0,117,0,69,0,0,0,0,0,0,0,0,13,64,40,13,45,22,79,33,5,53,20,5,117,0,0,69,7,0,78,34,5,52,21,5,115,2,0,68,7,0,115,2,0,68,7,0,116,1,0,68,7,0,31,77,9,21,47,8,116,1,0,68,7,0,115,2,0,68,7,0,2,107,8,2,66,6,0,109,8,1,67,7,63,42,12,38,31,9,113,3,0,66,9,0,80,10,27,52,9,13
2017-07-27T23:59:57Z,81,136,131,78,136,81,130,76,35,18,0,0,0,0,0,0,3,133,2,79,0,136,0,81,0,0,0,0,0,0,0,0,10,81,45,9,58,24,90,36,10,62,21,7,136,0,0,81,5,0,90,37,9,62,22,6,136,0,0,81,5,0,136,0,0,81,5,0,136,0,0,81,5,0,30,89,16,21,57,11,136,0,0,81,5,0,135,0,0,80,5,0,2,117,16,1,73,11,1,119,15,1,74,10,67,56,12,40,41,8,134,0,0,79,5,0,99,10,27,64,9,13
2017-07-28T23:59:56Z,84,138,133,81,138,84,132,79,34,17,0,0,0,0,0,0,3,135,2,82,0,138,0,84,0,0,0,0,0,0,0,0,14,80,44,12,59,24,93,36,9,66,22,6,138,0,0,84,6,0,92,37,9,64,23,6,137,1,0,83,7,0,137,1,0,83,7,0,137,1,0,83,7,0,36,88,13,25,57,9,138,0,0,84,6,0,137,0,0,83,6,0,0,124,13,0,79,9,0,125,12,0,80,8,72,54,11,43,42,7,135,1,0,81,7,0,100,11,27,66,10,13
2017-07-29T23:59:59Z,83,135,130,80,135,83,128,77,34,18,0,0,0,0,0,0,3,132,2,81,0,135,0,83,0,0,0,0,0,0,0,0,13,78,44,11,57,26,89,35,11,62,22,8,135,0,0,83,6,0,91,31,13,64,19,9,134,0,1,82,6,1,134,0,1,82,6,1,134,0,1,82,6,1,33,87,14,22,58,10,133,1,1,81,7,1,133,1,0,81,7,0,0,121,13,0,79,9,2,119,13,2,78,9,64,54,16,38,42,11,132,1,0,80,7,0,100,11,24,66,10,12
2017-07-30T23:59:56Z,82,136,131,79,136,82,130,77,38,19,0,0,0,0,0,0,3,133,2,80,0,136,0,82,0,0,0,0,0,0,0,0,10,81,44,10,60,24,89,37,10,63,21,7,136,0,0,82,6,0,91,35,10,64,20,7,134,1,0,81,7,0,134,1,0,81,7,0,135,1,0,81,7,0,36,85,14,25,53,10,136,0,0,82,6,0,135,0,0,81,6,0,1,118,16,1,76,10,1,121,13,1,77,9,63,58,13,37,44,9,133,0,0,80,6,0,100,12,24,66,9,12
2017-07-31T23:59:58Z,82,134,129,79,134,82,126,75,36,19,0,0,0,0,0,0,3,131,2,80,0,133,0,81,0,0,0,0,0,0,0,0,8,76,49,8,56,29,89,36,9,63,22,6,134,0,0,82,5,0,86,38,10,60,24,7,131,2,0,80,7,0,132,2,0,80,7,0,132,2,0,80,7,0,32,89,12,23,57,8,132,2,0,80,7,0,131,2,0,79,7,0,0,122,11,0,79,7,2,120,11,2,78,7,62,58,13,37,44,8,130,2,0,78,7,0,99,11,24,65,10,12
2017-08-01T23:59:59Z,83,134,129,80,134,83,128,78,31,16,0,0,0,0,0,0,3,131,2,81,0,134,0,83,0,0,0,0,0,0,0,0,10,82,42,10,60,24,91,35,8,65,22,5,134,0,0,83,5,0,93,32,9,66,20,6,134,0,0,83,5,0,134,0,0,83,5,0,134,0,0,83,5,0,37,83,13,26,54,9,132,2,0,81,7,0,132,1,0,81,6,0,2,118,13,1,77,9,0,122,11,0,80,7,65,56,12,40,42,8,130,2,0,79,7,0,100,10,24,66,10,12
2017-08-02T23:59:59Z,84,138,133,81,138,84,132,79,35,17,0,0,0,0,0,0,3,135,2,82,0,138,0,84,0,0,0,0,0,0,0,0,11,80,47,10,58,26,90,36,12,64,21,8,138,0,0,84,5,0,91,37,10,65,22,7,137,1,0,83,6,0,137,1,0,83,6,0,137,1,0,83,6,0,36,88,13,26,56,9,136,2,0,82,7,0,135,2,0,81,7,0,3,119,15,2,76,11,0,123,14,0,78,10,68,57,12,40,43,8,134,2,0,80,7,0,101,10,27,67,9,13
2017-08-03T23:59:58Z,84,138,133,81,138,84,132,79,34,16,0,0,0,0,0,0,3,135,2,82,0,138,0,84,0,0,0,0,0,0,0,0,9,81,48,9,59,27,91,37,10,64,22,7,138,0,0,84,5,0,92,36,10,65,21,7,138,0,0,84,5,0,138,0,0,84,5,0,138,0,0,84,5,0,35,87,15,25,55,11,137,1,0,83,6,0,136,1,0,82,6,0,0,123,14,0,79,10,2,122,13,1,80,9,68,56,13,40,42,9,134,2,0,80,7,0,101,10,27,67,9,13
2017-08-04T23:59:57Z,83,138,133,80,138,83,133,79,37,19,0,0,0,0,0,0,3,135,2,81,0,138,0,83,0,0,0,0,0,0,0,0,9,82,47,8,59,26,89,38,11,62,22,8,138,0,0,83,5,0,91,35,12,63,20,9,138,0,0,83,5,0,138,0,0,83,5,0,138,0,0,83,5,0,34,83,20,25,51,14,137,1,0,82,6,0,136,1,0,81,6,0,0,121,16,0,76,12,1,121,15,1,76,10,67,56,14,40,41,9,135,1,0,80,6,0,101,10,27,66,9,13
2017-08-05T23:59:58Z,85,140,135,82,140,85,134,81,34,17,0,0,0,0,0,0,3,137,2,83,0,140,0,85,0,0,0,0,0,0,0,0,14,82,44,12,59,24,93,37,10,65,22,7,140,0,0,85,5,0,95,36,9,66,22,6,139,1,0,84,6,0,139,1,0,84,6,0,139,1,0,84,6,0,39,87,13,27,55,9,138,2,0,83,7,0,137,2,0,82,7,0,0,125,14,0,80,9,2,124,13,2,79,8,70,57,12,42,42,8,136,2,0,81,7,0,102,11,27,67,10,13
2017-08-06T23:59:59Z,86,142,137,83,142,86,137,82,36,18,0,0,0,0,0,0,3,139,2,84,0,142,0,86,0,0,0,0,0,0,0,0,10,82,50,9,59,29,95,36,11,66,21,8,142,0,0,86,5,0,92,38,12,64,23,9,142,0,0,86,5,0,142,0,0,86,5,0,142,0,0,86,5,0,38,91,12,27,57,8,141,1,0,85,6,0,140,1,0,84,6,0,0,128,13,0,82,9,5,124,12,3,79,8,70,59,12,41,44,8,138,2,0,82,7,0,103,12,27,68,10,13
2017-08-07T23:59:59Z,84,140,135,81,140,84,135,80,36,18,0,0,0,0,0,0,3,137,2,82,0,140,0,84,0,0,0,0,0,0,0,0,10,83,47,9,60,26,93,36,11,64,21,8,140,0,0,84,5,0,95,35,10,66,21,7,140,0,0,84,5,0,140,0,0,84,5,0,140,0,0,84,5,0,35,89,15,24,56,11,139,1,0,83,6,0,138,1,0,82,6,0,0,121,18,0,77,12,1,125,13,1,79,9,68,57,14,41,41,9,137,1,0,81,6,0,102,11,27,66,10,13
2017-08-08T23:59:58Z,85,142,137,82,142,85,137,81,37,19,0,0,0,0,0,0,3,139,2,83,0,142,0,85,0,0,0,0,0,0,0,0,10,82,50,9,60,27,95,38,9,66,22,6,142,0,0,85,5,0,94,38,10,65,22,7,142,0,0,85,5,0,142,0,0,85,5,0,142,0,0,85,5,0,41,85,15,30,52,10,141,1,0,84,6,0,140,1,0,83,6,0,1,127,13,1,80,9,0,130,11,0,82,7,72,57,12,44,41,8,139,1,0,82,6,0,103,12,27,67,10,13
2017-08-09T23:59:59Z,86,143,138,83,143,86,136,80,37,19,0,0,0,0,0,0,3,140,2,84,0,143,0,86,0,0,0,0,0,0,0,0,13,82,48,11,60,27,94,40,9,65,24,6,143,0,0,86,5,0,93,38,12,64,23,8,141,2,0,84,7,0,141,2,0,84,7,0,141,2,0,84,7,0,34,95,13,24,60,9,141,2,0,84,7,0,140,2,0,83,7,0,0,123,19,0,78,13,2,126,14,2,79,10,71,59,12,43,42,8,138,3,0,81,8,0,103,13,27,67,11,13
2017-08-10T23:59:59Z,85,140,135,82,140,85,135,81,37,19,0,0,0,0,0,0,3,137,2,83,0,140,0,85,0,0,0,0,0,0,0,0,11,85,44,9,62,25,94,37,9,65,23,6,140,0,0,85,6,0,94,36,10,64,23,7,139,1,0,84,7,0,139,1,0,84,7,0,139,1,0,84,7,0,35,92,12,25,58,8,138,2,0,83,8,0,137,2,0,82,8,0,0,122,17,0,79,11,0,127,12,0,82,8,67,61,11,41,45,7,136,2,0,81,8,0,103,10,27,67,10,13
2017-08-11T23:59:58Z,83,139,134,80,139,83,134,79,32,15,0,0,0,0,0,0,3,136,2,81,0,139,0,83,0,0,0,0,0,0,0,0,12,81,46,10,58,26,92,37,10,63,22,7,139,0,0,83,5,0,93,36,10,64,21,7,138,1,0,82,6,0,138,1,0,82,6,0,138,1,0,82,6,0,36,91,11,25,56,7,137,2,0,81,7,0,136,2,0,80,7,0,1,126,11,1,80,7,1,126,11,1,79,7,68,59,11,41,43,7,135,2,0,79,7,0,102,10,27,66,9,13
2017-08-12T23:59:59Z,84,140,135,81,140,84,134,79,34,17,0,0,0,0,0,0,3,137,2,82,0,140,0,84,0,0,0,0,0,0,0,0,15,78,47,12,58,26,94,37,9,65,23,6,140,0,0,84,5,0,94,35,11,65,21,7,139,1,0,83,6,0,139,1,0,83,6,0,139,1,0,83,6,0,39,87,13,28,54,9,137,3,0,81,8,0,136,3,0,80,8,0,0,124,15,0,78,11,0,126,13,0,79,9,71,55,13,43,40,9,135,3,0,79,8,0,102,11,27,66,10,13
2017-08-13T23:59:59Z,83,138,133,80,138,83,133,79,34,18,0,0,0,0,0,0,3,135,2,81,0,138,0,83,0,0,0,0,0,0,0,0,14,82,42,11,59,23,94,35,9,65,21,6,138,0,0,83,5,0,96,33,9,66,20,6,138,0,0,83,5,0,138,0,0,83,5,0,138,0,0,83,5,0,40,83,14,29,51,10,137,1,0,82,6,0,136,1,0,81,6,0,0,123,14,0,78,9,0,126,11,0,80,7,71,55,11,43,40,7,135,1,0,80,6,0,102,9,27,66,9,13
2017-08-14T23:59:59Z,86,142,137,83,142,86,137,82,34,17,0,0,0,0,0,0,3,139,2,84,0,142,0,86,0,0,0,0,0,0,0,0,11,86,45,9,62,25,96,34,12,67,20,8,142,0,0,86,5,0,94,36,12,64,22,9,141,1,0,85,6,0,141,1,0,85,6,0,141,1,0,85,6,0,45,80,16,32,50,11,138,4,0,83,8,0,137,4,0,82,8,0,1,125,15,1,79,10,1,128,12,1,82,8,69,57,15,42,41,10,138,2,0,82,7,0,104,11,27,68,10,13
2017-08-15T23:59:58Z,84,141,136,81,141,84,135,80,34,16,0,0,0,0,0,0,3,138,2,82,0,141,0,84,0,0,0,0,0,0,0,0,12,84,44,10,61,24,96,36,9,67,21,6,141,0,0,84,5,0,95,36,10,66,21,7,141,0,0,84,5,0,141,0,0,84,5,0,141,0,0,84,5,0,39,86,15,27,53,11,140,1,0,83,6,0,139,1,0,82,6,0,1,126,13,1,79,9,1,127,12,1,79,8,73,55,12,43,41,8,137,2,0,80,7,0,103,11,27,67,9,13
2017-08-16T23:59:58Z,83,138,133,80,138,83,132,78,36,18,0,0,0,0,0,0,3,135,2,81,0,138,0,83,0,0,0,0,0,0,0,0,14,81,43,12,59,23,93,35,10,65,20,7,138,0,0,83,5,0,95,34,9,66,20,6,138,0,0,83,5,0,138,0,0,83,5,0,138,0,0,83,5,0,40,82,15,27,52,10,137,1,0,82,6,0,136,1,0,81,6,0,1,122,14,1,76,10,0,125,12,0,79,8,71,54,12,42,41,8,135,1,0,80,6,0,101,10,27,66,9,13
2017-08-17T23:59:58Z,82,137,132,79,137,82,131,77,36,18,0,0,0,0,0,0,3,134,2,80,0,137,0,82,0,0,0,0,0,0,0,0,12,81,44,10,59,24,91,36,10,63,21,7,137,0,0,82,5,0,90,34,13,63,20,10,137,0,0,82,5,0,137,0,0,82,5,0,137,0,0,82,5,0,43,77,16,28,49,12,136,1,0,81,6,0,135,1,0,80,6,0,0,122,14,0,77,10,2,120,14,2,76,10,71,51,14,40,39,10,134,1,0,79,6,0,100,10,27,65,9,13
2017-08-18T23:59:59Z,81,135,130,78,135,81,129,76,35,17,0,0,0,0,0,0,0,135,0,81,0,135,0,81,0,0,0,0,0,0,0,0,10,82,43,9,60,24,89,35,11,62,21,8,135,0,0,81,5,0,88,34,13,62,20,9,135,0,0,81,5,0,135,0,0,81,5,0,135,0,0,81,5,0,39,83,12,26,53,9,134,1,0,80,6,0,133,1,0,79,6,0,0,122,12,0,77,9,2,121,11,1,77,8,74,50,10,43,39,7,133,1,0,79,6,0,98,10,27,64,9,13
2017-08-19T23:59:59Z,83,139,134,80,139,83,133,78,36,18,0,0,0,0,0,0,3,136,2,81,0,139,0,83,0,0,0,0,0,0,0,0,14,80,45,11,57,25,92,38,9,64,22,6,139,0,0,83,5,0,90,36,13,62,21,10,136,3,0,81,7,0,136,3,0,81,7,0,136,3,0,81,7,0,43,81,14,28,52,9,138,1,0,82,6,0,137,1,0,81,6,0,0,124,14,0,77,10,1,124,13,1,78,9,75,52,11,43,40,7,133,4,0,78,8,0,101,11,27,66,9,13
2017-08-20T23:59:58Z,82,138,133,79,138,82,132,77,33,16,0,0,0,0,0,0,3,135,2,80,0,138,0,82,0,0,0,0,0,0,0,0,13,80,45,10,57,25,93,34,11,63,20,8,138,0,0,82,5,0,90,34,14,61,20,10,138,0,0,82,5,0,138,0,0,82,5,0,138,0,0,82,5,0,40,84,13,27,53,9,137,1,0,81,6,0,136,1,0,80,6,0,2,118,17,2,74,11,2,121,14,1,75,10,69,54,14,39,41,9,135,1,0,79,6,0,101,10,27,65,9,13